Weather History for KCEY - February, 2012

Change the Weather History Date:

Friday, February 17, 2012

  Actual Average (KPAH) Record (KPAH)
Temperature  
Mean Temperature 41 °F 40 °F  
Max Temperature 50 °F 50 °F 70 °F (1986)
Min Temperature 32 °F 30 °F -5 °F (1958)
Degree Days  
Heating Degree Days 24 25  
Month to date heating degree days 465  
Since 1 July heating degree days 3038  
Cooling Degree Days 0 0  
Month to date cooling degree days 0  
Year to date cooling degree days 0  
Moisture  
Dew Point 33 °F    
Average Humidity 73    
Maximum Humidity 100    
Minimum Humidity 47    
Precipitation  
Precipitation 0.00 in 0.13 in 2.88 in (1976)
Month to date precipitation 2.38  
Year to date precipitation 6.06  
Snow  
Snow 0.00 in 0.10 in 1.60 in (1987)
Month to date snowfall 2.1  
Since 1 July snowfall 7.4  
Snow Depth -    
Sea Level Pressure  
Sea Level Pressure 30.21 in    
Wind  
Wind Speed 5 mph (NE)    
Max Wind Speed 10 mph    
Max Gust Speed -    
Visibility 7 miles    
Events      
T = Trace of Precipitation, MM = Missing Value Source: NWS Daily Summary

Daily Weather History Graph

Daily Weather History Graph

Search for Another Location

Airport or City:

Trip Planner

Search our weather history database for the weather conditions in past years. The results will help you decide how hot, cold, wet, or windy it might be!

Date:

Astronomy

Feb. 17, 2012 Rise Set
Actual Time 6:39 AM CST 5:35 PM CST
Civil Twilight 6:13 AM CST 6:02 PM CST
Nautical Twilight 5:43 AM CST 6:32 PM CST
Astronomical Twilight 5:13 AM CST 7:02 PM CST
Moon 3:26 AM CST (2/17) 1:33 PM CST (2/17)
Length of Visible Light 11h 48m
Length of Day
10h 55m
Waning Crescent, 19% of the Moon is Illuminated
Feb 17
Waning Crescent
Feb 21
New
Feb 29
First Quarter
Mar 8
Full
Mar 14
Last Quarter

Hourly Weather History & Observations

Time (CST) Temp. Windchill Dew Point Humidity Pressure Visibility Wind Dir Wind Speed Gust Speed Precip Events Conditions
12:15 AM 39.2 °F 35.9 °F 33.8 °F 81% 30.24 in 9.0 mi North 4.6 mph - N/A   Overcast
12:35 AM 32.0 °F 25.6 °F 32.0 °F 100% 30.23 in 5.0 mi North 6.9 mph - N/A   Mostly Cloudy
12:55 AM 37.4 °F 31.4 °F 33.8 °F 87% 30.23 in 7.0 mi North 8.1 mph - N/A   Partly Cloudy
1:15 AM 37.4 °F 32.8 °F 33.8 °F 87% 30.23 in 6.0 mi North 5.8 mph - N/A   Scattered Clouds
1:35 AM 37.4 °F 32.1 °F 33.8 °F 87% 30.22 in 5.0 mi North 6.9 mph - N/A   Partly Cloudy
1:55 AM 37.4 °F 32.8 °F 33.8 °F 87% 30.23 in 5.0 mi North 5.8 mph - N/A   Clear
2:15 AM 37.4 °F 32.1 °F 33.8 °F 87% 30.22 in 5.0 mi North 6.9 mph - N/A   Clear
2:35 AM 37.4 °F 32.8 °F 33.8 °F 87% 30.22 in 5.0 mi North 5.8 mph - N/A   Clear
2:55 AM 37.4 °F 32.8 °F 33.8 °F 87% 30.22 in 4.0 mi North 5.8 mph - N/A   Clear
3:15 AM 35.6 °F 31.7 °F 32.0 °F 87% 30.22 in 3.0 mi North 4.6 mph - N/A   Clear
3:35 AM 35.6 °F 31.7 °F 33.8 °F 93% 30.22 in 3.0 mi North 4.6 mph - N/A   Clear
3:55 AM 33.8 °F - 32.0 °F 93% 30.23 in 2.5 mi Calm Calm - N/A   Clear
4:15 AM 32.0 °F - 32.0 °F 100% 30.23 in 1.8 mi Calm Calm - N/A   Scattered Clouds
4:35 AM 33.8 °F - 32.0 °F 93% 30.23 in 2.0 mi Calm Calm - N/A   Mostly Cloudy
5:15 AM 32.0 °F 27.5 °F 32.0 °F 100% 30.22 in 1.5 mi NE 4.6 mph - N/A   Scattered Clouds
5:35 AM 33.8 °F 27.7 °F 32.0 °F 93% 30.22 in 2.0 mi NE 6.9 mph - N/A   Mostly Cloudy
5:55 AM 32.0 °F 25.6 °F 32.0 °F 100% 30.22 in 1.5 mi NE 6.9 mph - N/A   Mostly Cloudy
6:15 AM 32.0 °F 26.4 °F 32.0 °F 100% 30.22 in 1.5 mi NE 5.8 mph - N/A   Scattered Clouds
6:35 AM 32.0 °F 27.5 °F 32.0 °F 100% 30.21 in 1.0 mi East 4.6 mph - N/A   Mostly Cloudy
6:55 AM 32.0 °F 27.5 °F 32.0 °F 100% 30.22 in 0.8 mi ENE 4.6 mph - N/A   Mostly Cloudy
7:15 AM 33.8 °F 29.6 °F 32.0 °F 93% 30.22 in 0.8 mi ENE 4.6 mph - N/A   Unknown
7:35 AM 33.8 °F 27.7 °F 33.8 °F 100% 30.22 in 1.0 mi East 6.9 mph - N/A   Clear
7:55 AM 37.4 °F 33.8 °F 35.6 °F 93% 30.24 in 2.5 mi ENE 4.6 mph - N/A   Clear
8:15 AM 37.4 °F 32.1 °F 35.6 °F 93% 30.24 in 3.0 mi East 6.9 mph - N/A   Clear
8:35 AM 39.2 °F 33.6 °F 35.6 °F 87% 30.25 in 5.0 mi ENE 8.1 mph - N/A   Clear
8:55 AM 41.0 °F 37.1 °F 35.6 °F 81% 30.26 in 5.0 mi ENE 5.8 mph - N/A   Clear
9:15 AM 41.0 °F 38.0 °F 35.6 °F 81% 30.26 in 6.0 mi ENE 4.6 mph - N/A   Clear
9:35 AM 42.8 °F 38.0 °F 35.6 °F 76% 30.26 in 8.0 mi East 8.1 mph - N/A   Clear
9:55 AM 44.6 °F 40.2 °F 35.6 °F 71% 30.24 in 9.0 mi East 8.1 mph - N/A   Clear
10:15 AM 46.4 °F 41.5 °F 33.8 °F 62% 30.25 in 10.0 mi ENE 10.4 mph - N/A   Scattered Clouds
10:35 AM 46.4 °F 41.9 °F 32.0 °F 57% 30.24 in 10.0 mi East 9.2 mph - N/A   Scattered Clouds
10:55 AM 46.4 °F 42.9 °F 32.0 °F 57% 30.23 in 10.0 mi ESE 6.9 mph - N/A   Clear
11:15 AM 48.2 °F - 32.0 °F 54% 30.22 in 10.0 mi ENE 9.2 mph - N/A   Clear
11:35 AM 48.2 °F - 32.0 °F 54% 30.21 in 10.0 mi East 9.2 mph - N/A   Clear
11:55 AM 48.2 °F - 32.0 °F 54% 30.21 in 10.0 mi ENE 9.2 mph - N/A   Clear
12:15 PM 50.0 °F - 32.0 °F 50% 30.21 in 10.0 mi NE 4.6 mph - N/A   Clear
12:35 PM 50.0 °F - 32.0 °F 50% 30.20 in 10.0 mi SSE 3.5 mph - N/A   Scattered Clouds
12:55 PM 50.0 °F - 32.0 °F 50% 30.19 in 10.0 mi South 3.5 mph - N/A   Mostly Cloudy
1:15 PM 50.0 °F - 32.0 °F 50% 30.18 in 10.0 mi East 5.8 mph - N/A   Mostly Cloudy
1:35 PM 50.0 °F - 32.0 °F 50% 30.17 in 10.0 mi ESE 3.5 mph - N/A   Scattered Clouds
1:55 PM 50.0 °F - 32.0 °F 50% 30.17 in 10.0 mi Calm Calm - N/A   Clear
2:15 PM 50.0 °F - 32.0 °F 50% 30.17 in 10.0 mi Calm Calm - N/A   Clear
2:35 PM 50.0 °F - 30.2 °F 47% 30.16 in 10.0 mi Calm Calm - N/A   Clear
2:55 PM 50.0 °F - 32.0 °F 50% 30.16 in 10.0 mi ENE 3.5 mph - N/A   Clear
3:15 PM 50.0 °F - 32.0 °F 50% 30.16 in 10.0 mi ENE 4.6 mph - N/A   Clear
3:35 PM 50.0 °F - 30.2 °F 47% 30.16 in 10.0 mi Calm Calm - N/A   Clear
3:55 PM 50.0 °F - 32.0 °F 50% 30.15 in 10.0 mi Calm Calm - N/A   Clear
4:15 PM 50.0 °F - 30.2 °F 47% 30.15 in 10.0 mi Calm Calm - N/A   Clear
4:55 PM 50.0 °F - 30.2 °F 47% 30.14 in 10.0 mi Calm Calm - N/A   Clear
5:15 PM 50.0 °F - 30.2 °F 47% 30.14 in 10.0 mi NNE 3.5 mph - N/A   Clear
5:35 PM 48.2 °F - 33.8 °F 58% 30.13 in 10.0 mi North 3.5 mph - N/A   Clear
5:55 PM 48.2 °F - 32.0 °F 54% 30.13 in 10.0 mi Calm Calm - N/A   Clear
6:15 PM 46.4 °F 45.2 °F 32.0 °F 57% 30.13 in 10.0 mi North 3.5 mph - N/A   Clear
6:55 PM 46.4 °F 44.3 °F 32.0 °F 57% 30.12 in 10.0 mi NNE 4.6 mph - N/A   Partly Cloudy
7:15 PM 44.6 °F 43.1 °F 32.0 °F 61% 30.13 in 10.0 mi NE 3.5 mph - N/A   Partly Cloudy
7:35 PM 46.4 °F 45.2 °F 32.0 °F 57% 30.13 in 10.0 mi NE 3.5 mph - N/A   Clear
7:55 PM 44.6 °F 43.1 °F 30.2 °F 57% 30.13 in 10.0 mi ENE 3.5 mph - N/A   Partly Cloudy
8:15 PM 44.6 °F - 32.0 °F 61% 30.13 in 10.0 mi Calm Calm - N/A   Partly Cloudy
8:35 PM 44.6 °F - 32.0 °F 61% 30.12 in 10.0 mi Calm Calm - N/A   Partly Cloudy
8:55 PM 42.8 °F - 33.8 °F 70% 30.13 in 10.0 mi Calm Calm - N/A   Scattered Clouds
9:15 PM 42.8 °F - 32.0 °F 66% 30.12 in 10.0 mi Calm Calm - N/A   Mostly Cloudy
9:35 PM 42.8 °F - 32.0 °F 66% 30.12 in 10.0 mi Calm Calm - N/A   Mostly Cloudy
9:55 PM 42.8 °F 41.1 °F 32.0 °F 66% 30.11 in 10.0 mi NE 3.5 mph - N/A   Mostly Cloudy
10:15 PM 41.0 °F - 32.0 °F 70% 30.11 in 10.0 mi Calm Calm - N/A   Mostly Cloudy
10:35 PM 42.8 °F - 32.0 °F 66% 30.11 in 10.0 mi Calm Calm - N/A   Overcast
10:55 PM 42.8 °F - 32.0 °F 66% 30.11 in 10.0 mi Calm Calm - N/A   Mostly Cloudy
11:15 PM 41.0 °F - 33.8 °F 76% 30.11 in 10.0 mi Calm Calm - N/A   Mostly Cloudy
11:35 PM 41.0 °F 38.0 °F 35.6 °F 81% 30.11 in 10.0 mi North 4.6 mph - N/A   Overcast
11:55 PM 41.0 °F 39.0 °F 35.6 °F 81% 30.12 in 10.0 mi North 3.5 mph - N/A   Overcast